[[{"header":{"parameterUnit":"m.s-1","parameterCategory":1,"la1":30.2991,"la2":30.254,"lo1":-89.0895,"lo2":-89.0444,"dy":0.0017,"dx":0.0017,"nx":28,"ny":28,"refTime":"2024-12-15T03:00:00:Z","depth":0,"parameterNumber":2,"parameterNumberName":"U-component_of_WINDS"},"data":[0,0,0,0,0,0,0,0,0,0,0,0,0,0,0,0,0,0,0,0,0,0,0,0,0,0,0,0,0,0,0,0,0,0,0,0,0,0,0,0,0,0,0,0,0,0,0,0,0,0,0,0,0,0,0,0,0,0,-4.2527,-4.2527,0,-4.2491,-4.2491,-4.2491,-4.2367,-4.2364,-4.2361,-4.2359,-4.2324,-4.2326,-4.2327,0,0,0,0,0,0,0,0,0,0,0,0,0,-4.2492,-4.2493,-4.2527,-4.2527,-4.2526,-4.2492,-4.2491,-4.2491,-4.2367,-4.2364,-4.236,-4.2357,-4.2323,-4.2325,-4.2327,0,0,0,0,0,0,0,0,0,0,0,0,0,-4.2487,-4.2494,-4.2527,-4.2461,-4.2454,-4.2492,-4.2491,-4.249,-4.2368,-4.2364,-4.236,-4.2356,-4.2323,-4.2325,-4.2328,-4.2427,0,0,-4.2335,-4.2337,0,0,0,0,0,0,0,0,-4.2487,-4.2488,-4.2471,-4.2465,-4.2458,-4.2429,-4.2466,-4.2469,-4.2369,-4.2401,-4.2358,-4.2354,-4.2363,-4.2362,-4.2364,-4.2426,-4.2424,-4.2336,-4.2337,-4.2338,-4.2339,0,0,0,0,0,0,0,-4.2488,-4.2489,-4.2513,-4.2471,-4.2463,-4.2433,-4.2428,-4.2466,-4.2406,-4.2398,-4.2389,-4.2386,-4.2358,-4.2362,-4.2362,-4.2424,-4.2336,-4.2338,-4.2339,-4.234,-4.2568,-4.2573,0,0,0,0,0,0,-4.2497,-4.249,-4.2514,-4.2512,-4.2463,-4.2438,-4.2432,-4.2443,-4.2405,-4.2395,-4.239,-4.238,-4.236,-4.236,-4.2361,-4.2476,-4.2338,-4.2341,-4.2342,-4.2564,-4.2569,-4.2574,0,0,0,0,0,0,-4.2497,-4.2501,-4.2516,-4.2499,-4.2498,-4.2443,-4.2456,-4.2444,-4.2448,-4.2399,-4.2388,-4.2404,-4.2356,-4.2357,-4.2412,-4.2474,-4.2342,-4.2344,-4.2558,-4.2565,-4.2572,-4.2708,0,0,0,0,0,0,-4.2497,-4.2501,-4.2538,-4.25,-4.25,-4.2567,-4.246,-4.2447,-4.2452,-4.244,-4.241,-4.2401,-4.2353,-4.2409,-4.2415,-4.2475,-4.2346,-4.2553,-4.2562,-4.257,-4.2698,-4.2719,-4.2737,0,0,0,0,0,-4.2496,-4.2577,-4.254,-4.2544,-4.2544,-4.2571,-4.257,-4.2514,-4.2458,-4.2494,-4.2463,-4.2401,-4.2466,-4.2416,-4.2421,-4.2483,-4.2549,-4.2559,-4.2569,-4.2689,-4.2715,-4.2736,0,0,0,0,0,0,-4.2623,-4.2571,-4.2529,-4.2601,-4.2591,-4.255,-4.2594,-4.2542,-4.2548,-4.2536,-4.2466,-4.2461,-4.2527,-4.251,-4.2455,-4.2579,-4.2497,-4.2509,-4.2587,-4.2611,-4.263,-4.2633,-4.2348,0,0,0,0,0,-4.2659,-4.2685,-4.2638,-4.2706,-4.2703,-4.265,-4.266,-4.2617,-4.2604,-4.26,-4.2572,-4.2563,-4.2582,-4.2595,-4.2609,-4.2695,-4.2688,-4.274,-4.276,-4.2776,-4.2787,-4.2834,-4.2857,-4.2608,-4.2608,-4.2607,0,0,-4.2735,-4.2709,-4.273,-4.2731,-4.2718,-4.2748,-4.2647,-4.2682,-4.2703,-4.2605,-4.2656,-4.2636,-4.2621,-4.2693,-4.2723,-4.2681,-4.2855,-4.2789,-4.2802,-4.2804,-4.2847,-4.2871,-4.2892,-4.2615,-4.2613,-4.2612,0,0,-4.2887,-4.287,-4.2925,-4.2916,-4.2898,-4.2862,-4.2876,-4.2843,-4.2827,-4.2876,-4.2804,-4.2829,-4.2861,-4.2854,-4.2855,-4.3009,-4.2953,-4.3015,-4.3117,-4.3163,-4.3183,-4.32,-4.3257,-4.3278,-4.3027,-4.3027,-4.3027,0,-4.2983,-4.3023,-4.2961,-4.3001,-4.3005,-4.2917,-4.2974,-4.2968,-4.2956,-4.2962,-4.2915,-4.2955,-4.2939,-4.3009,-4.3047,-4.305,-4.3065,-4.3018,-4.3185,-4.3202,-4.3217,-4.327,-4.3291,-4.3035,-4.3034,-4.3033,-4.3032,0,-4.3143,-4.3172,-4.322,-4.3211,-4.322,-4.3269,-4.3215,-4.3232,-4.319,-4.316,-4.3213,-4.3191,-4.32,-4.3214,-4.3172,-4.3279,-4.3254,-4.3197,-4.3114,-4.3249,-4.3298,-4.3318,-4.3046,-4.3043,-4.3041,-4.3039,0,0,-4.3372,-4.3331,-4.3349,-4.3346,-4.3322,-4.3344,-4.3389,-4.3398,-4.3415,-4.3411,-4.3449,-4.3479,-4.3428,-4.3429,-4.3386,-4.3427,-4.3553,-4.3365,-4.3364,-4.3402,-4.3672,-4.3716,-4.374,-4.3516,-4.3519,-4.3522,-4.3674,0,-4.3518,-4.3593,-4.354,-4.3624,-4.3652,-4.3571,-4.3611,-4.3602,-4.3576,-4.3597,-4.3568,-4.3592,-4.3521,-4.3521,-4.3558,-4.353,-4.3606,-4.3518,-4.3552,-4.3554,-4.3559,-4.3765,-4.3811,-4.3955,-4.3692,-4.3695,-4.3698,0,-4.3698,-4.3703,-4.379,-4.3763,-4.3772,-4.3809,-4.3815,-4.3835,-4.3824,-4.3802,-4.3806,-4.3753,-4.3798,-4.3716,-4.3778,-4.3719,-4.373,-4.3719,-4.3723,-4.3725,-4.3635,-4.3774,-4.3999,-4.4022,-4.3727,-4.3725,-4.3723,0,-4.3859,-4.3887,-4.3943,-4.3943,-4.3912,-4.394,-4.3929,-4.3913,-4.3923,-4.3928,-4.3934,-4.3945,-4.3951,-4.3961,-4.3914,-4.3858,-4.3983,-4.3897,-4.3968,-4.3969,-4.3998,-4.3997,-4.423,-4.4004,-4.4003,-4.4003,-4.4002,0,-4.4027,-4.4085,-4.4016,-4.4051,-4.4113,-4.4053,-4.4117,-4.4097,-4.4084,-4.4115,-4.4046,-4.4077,-4.4012,-4.4037,-4.4,-4.4058,-4.4061,-4.4046,-4.4036,-4.4053,-4.4055,-4.406,-4.4049,-4.4008,-4.4007,-4.4006,-4.4005,0,-4.4217,-4.4173,-4.423,-4.4197,-4.419,-4.4238,-4.421,-4.4242,-4.4212,-4.4253,-4.4259,-4.4213,-4.4239,-4.4192,-4.4212,-4.4188,-4.427,-4.4243,-4.4274,-4.4267,-4.4341,-4.4335,-4.4586,-4.4616,-4.437,-4.4372,-4.4374,0,-4.4328,-4.437,-4.4343,-4.4358,-4.4351,-4.4377,-4.4387,-4.433,-4.4344,-4.4336,-4.437,-4.439,-4.4403,-4.4449,-4.4418,-4.4433,-4.4408,-4.4494,-4.4409,-4.4426,-4.4411,-4.441,-4.4415,-4.4512,-4.4515,-4.4518,-4.4519,0,-4.453,-4.4507,-4.4523,-4.4535,-4.4549,-4.4554,-4.4555,-4.4572,-4.4512,-4.4531,-4.4557,-4.4568,-4.4589,-4.4611,-4.462,-4.4609,-4.4556,-4.4547,-4.4564,-4.4582,-4.4599,-4.4593,-4.4323,-4.4541,-4.4539,-4.4537,-4.4536,-4.4535,-4.4684,-4.4719,-4.4706,-4.4728,-4.4723,-4.4726,-4.4755,-4.473,-4.4751,-4.4764,-4.4729,-4.4764,-4.4754,-4.4761,-4.4756,-4.4784,-4.4745,-4.477,-4.4777,-4.4784,-4.4797,-4.4595,-4.4785,-4.4784,-4.4784,-4.4783,-4.4782,0,-4.4884,-4.4872,-4.4893,-4.4897,-4.4916,-4.4864,-4.4863,-4.4882,-4.4913,-4.4909,-4.4924,-4.4955,-4.4977,-4.4949,-4.4966,-4.4993,-4.497,-4.5,-4.4998,-4.4997,-4.4829,-4.4813,-4.5019,-4.5019,-4.5019,-4.5019,-4.5019,-4.5019,-4.499,-4.5047,-4.5023,-4.5078,-4.5066,-4.51,-4.5104,-4.5107,-4.5104,-4.5142,-4.516,-4.5141,-4.5128,-4.5144,-4.5163,-4.5154,-4.5164,-4.5204,-4.5187,-4.5031,-4.5008,-4.4986,-4.4971,-4.5206,-4.5207,-4.5352,-4.5354,-4.5355]},{"header":{"parameterUnit":"m.s-1","parameterCategory":1,"la1":30.2991,"la2":30.254,"lo1":-89.0895,"lo2":-89.0444,"dy":0.0017,"dx":0.0017,"nx":28,"ny":28,"refTime":"2024-12-15T03:00:00:Z","depth":0,"parameterNumber":3,"parameterNumberName":"V-component_of_WINDS"},"data":[0,0,0,0,0,0,0,0,0,0,0,0,0,0,0,0,0,0,0,0,0,0,0,0,0,0,0,0,0,0,0,0,0,0,0,0,0,0,0,0,0,0,0,0,0,0,0,0,0,0,0,0,0,0,0,0,0,0,0.0305,0.0305,0,0.0323,0.0324,0.0324,0.0346,0.0346,0.0347,0.0347,0.0364,0.0364,0.0364,0,0,0,0,0,0,0,0,0,0,0,0,0,0.0288,0.0288,0.0305,0.0305,0.0305,0.0323,0.0324,0.0324,0.0346,0.0346,0.0347,0.0347,0.0364,0.0364,0.0364,0,0,0,0,0,0,0,0,0,0,0,0,0,0.0299,0.0288,0.0305,0.0318,0.032,0.0323,0.0324,0.0324,0.0346,0.0346,0.0347,0.0347,0.0363,0.0364,0.0364,0.0354,0,0,0.0364,0.0364,0,0,0,0,0,0,0,0,0.0299,0.03,0.0316,0.0317,0.0319,0.0333,0.0324,0.0334,0.0346,0.0336,0.0347,0.0348,0.0353,0.0354,0.0356,0.0355,0.0356,0.0364,0.0364,0.0365,0.0365,0,0,0,0,0,0,0,0.0298,0.0299,0.0312,0.0316,0.0318,0.0324,0.0326,0.0326,0.0341,0.0337,0.0339,0.0341,0.0354,0.0356,0.0357,0.0356,0.0364,0.0364,0.0365,0.0365,0.0351,0.035,0,0,0,0,0,0,0.0295,0.0299,0.0311,0.0313,0.031,0.0324,0.0326,0.0328,0.0341,0.0344,0.034,0.0342,0.0355,0.0356,0.0357,0.0349,0.0365,0.0365,0.0365,0.0351,0.0351,0.035,0,0,0,0,0,0,0.0295,0.0296,0.0311,0.0306,0.0308,0.0323,0.0325,0.0328,0.033,0.0344,0.0346,0.034,0.0356,0.0357,0.0356,0.035,0.0365,0.0365,0.0352,0.0351,0.0351,0.0331,0,0,0,0,0,0,0.0294,0.0296,0.0292,0.0306,0.0309,0.0309,0.0325,0.0328,0.0331,0.0333,0.0344,0.0346,0.0356,0.0355,0.0356,0.035,0.0365,0.0353,0.0352,0.0351,0.0332,0.0329,0.0327,0,0,0,0,0,0.0293,0.0285,0.0292,0.0293,0.0304,0.0308,0.031,0.0322,0.033,0.0327,0.0336,0.0346,0.035,0.0355,0.0356,0.035,0.0353,0.0352,0.0351,0.0333,0.033,0.0327,0,0,0,0,0,0,0.0268,0.0287,0.0295,0.029,0.0298,0.0312,0.0308,0.0318,0.0323,0.0324,0.0339,0.0341,0.0339,0.0344,0.0349,0.0343,0.0353,0.0352,0.0339,0.0336,0.0334,0.0333,0.0365,0,0,0,0,0,0.0262,0.0264,0.028,0.0275,0.0278,0.0293,0.0295,0.0304,0.0312,0.0315,0.0324,0.0331,0.0334,0.0335,0.0339,0.0333,0.0336,0.033,0.0327,0.0325,0.0324,0.0324,0.0321,0.0347,0.0347,0.0347,0,0,0.025,0.026,0.026,0.027,0.0277,0.0279,0.0295,0.0296,0.0297,0.0315,0.0315,0.0322,0.033,0.0327,0.0326,0.0332,0.0318,0.0324,0.0322,0.0322,0.0322,0.032,0.0318,0.0346,0.0346,0.0346,0,0,0.0228,0.0235,0.0233,0.024,0.0251,0.0262,0.0261,0.0275,0.028,0.0281,0.0295,0.0297,0.0301,0.0308,0.0312,0.0296,0.0306,0.0297,0.0284,0.0283,0.0281,0.028,0.0275,0.0273,0.0296,0.0296,0.0296,0,0.021,0.0214,0.023,0.0231,0.0235,0.0253,0.0251,0.0257,0.0268,0.0271,0.0277,0.0286,0.0293,0.0292,0.0289,0.0291,0.0291,0.0295,0.028,0.0279,0.0277,0.0273,0.0272,0.0294,0.0295,0.0295,0.0295,0,0.0193,0.0196,0.0192,0.0205,0.0209,0.0208,0.0224,0.0226,0.0236,0.0246,0.0247,0.0257,0.0264,0.0264,0.0273,0.0266,0.0269,0.0278,0.0288,0.0274,0.027,0.0269,0.0293,0.0293,0.0294,0.0294,0,0,0.0154,0.0177,0.0176,0.0183,0.0198,0.02,0.0201,0.0209,0.0212,0.0219,0.0221,0.0226,0.0235,0.024,0.0249,0.0249,0.0238,0.0258,0.0258,0.0254,0.0232,0.0226,0.0224,0.0245,0.0244,0.0244,0.0232,0,0.0135,0.0139,0.0154,0.0153,0.0157,0.0175,0.0176,0.0186,0.0195,0.02,0.021,0.0214,0.0225,0.0228,0.0228,0.0239,0.0233,0.024,0.0246,0.0246,0.0244,0.0222,0.0215,0.0203,0.023,0.023,0.023,0,0.0113,0.0122,0.0122,0.014,0.0142,0.0142,0.0153,0.0156,0.0168,0.0176,0.0182,0.0194,0.0197,0.0207,0.0211,0.0216,0.0219,0.0225,0.0225,0.0226,0.0237,0.0223,0.0199,0.0197,0.0228,0.0228,0.0228,0,0.0086,0.0098,0.01,0.0105,0.0125,0.0126,0.0134,0.0146,0.0151,0.016,0.0164,0.0172,0.0177,0.0183,0.0197,0.0203,0.02,0.0212,0.0207,0.0206,0.0205,0.0205,0.0182,0.0207,0.0207,0.0207,0.0207,0,0.0064,0.0063,0.0088,0.0089,0.009,0.0108,0.0108,0.0118,0.0129,0.0133,0.0149,0.0152,0.0171,0.0176,0.0187,0.019,0.0192,0.0198,0.0201,0.0197,0.0196,0.0199,0.02,0.0206,0.0206,0.0206,0.0206,0,0.0033,0.0049,0.0053,0.0073,0.0078,0.0078,0.0095,0.0097,0.0109,0.0114,0.0116,0.0134,0.0142,0.0157,0.0168,0.0175,0.0176,0.0181,0.0172,0.0174,0.0169,0.0169,0.0147,0.0146,0.0171,0.0171,0.017,0,0.0017,0.0018,0.0039,0.0043,0.0052,0.0058,0.0064,0.0083,0.0088,0.0103,0.0104,0.0113,0.0121,0.0133,0.0147,0.0156,0.0161,0.0153,0.0162,0.0159,0.0162,0.0162,0.0163,0.0151,0.015,0.015,0.015,0,-0.0011,-0.0002,0.0006,0.0018,0.0026,0.0035,0.0046,0.0049,0.007,0.0075,0.0084,0.0091,0.0104,0.0113,0.0125,0.0133,0.0145,0.0147,0.0146,0.0142,0.0137,0.0141,0.0167,0.0147,0.0147,0.0147,0.0148,0.0148,-0.0034,-0.0032,-0.0016,-0.0007,0.0004,0.0014,0.0018,0.0032,0.004,0.0053,0.0063,0.0072,0.0086,0.0103,0.0111,0.0118,0.0124,0.0123,0.0122,0.0122,0.0121,0.0137,0.012,0.012,0.012,0.012,0.0121,0,-0.0061,-0.0049,-0.0041,-0.0025,-0.0017,-0.0004,0.0009,0.0015,0.0022,0.0035,0.0044,0.0055,0.0065,0.0081,0.0092,0.0095,0.01,0.0097,0.0097,0.0099,0.0115,0.0114,0.0092,0.0092,0.0092,0.0092,0.0092,0.0092,-0.0075,-0.0069,-0.0058,-0.0047,-0.0035,-0.0025,-0.0019,-0.0008,0.0002,0.0015,0.0024,0.0035,0.0049,0.0062,0.0072,0.0076,0.008,0.0075,0.0081,0.0095,0.0097,0.01,0.01,0.0075,0.0075,0.0065,0.0064,0.0064]}]]